| time (UTC) | temp F | wind direction | speed MPH | gust MPH | rain 1hr in | rain 24hr in | rain mn in | humidity % | barometer mb |
| 20260504050018 | 47 | 0.0 | 0.0 | 0.00 | 0.00 | 0.00 | 56 | 1011.0 | |
| 20260504043017 | 47 | 0.0 | 0.0 | 0.00 | 0.00 | 0.00 | 54 | 1010.9 | |
| 20260504040016 | 48 | 0.0 | 0.0 | 0.00 | 0.00 | 0.00 | 54 | 1010.7 | |
| 20260504033018 | 49 | 0.0 | 0.0 | 0.00 | 0.00 | 0.00 | 52 | 1010.4 | |
| 20260504030017 | 50 | 0.0 | 0.0 | 0.00 | 0.00 | 0.00 | 50 | 1010.2 | |
| 20260504023017 | 51 | 0.0 | 1.0 | 0.00 | 0.00 | 0.00 | 48 | 1010.3 | |
| 20260504020017 | 51 | 0.0 | 0.0 | 0.00 | 0.00 | 0.00 | 46 | 1010.4 | |
| 20260504013017 | 52 | 0.0 | 0.0 | 0.00 | 0.00 | 0.00 | 44 | 1010.3 | |
| 20260504010018 | 53 | 0.0 | 0.0 | 0.00 | 0.00 | 0.00 | 44 | 1010.0 | |
| 20260504003017 | 55 | 0.0 | 1.0 | 0.00 | 0.00 | 0.00 | 41 | 1009.8 | |
| 20260504000037 | 56 | 0.0 | 2.0 | 0.00 | 0.00 | 0.00 | 40 | 1009.4 | |
| 20260503233038 | 57 | 0 | 1.0 | 6.0 | 0.00 | 0.00 | 0.00 | 38 | 1009.3 |
| 20260503230017 | 58 | 0 | 2.0 | 6.0 | 0.00 | 0.00 | 0.00 | 37 | 1008.9 |
| 20260503223016 | 58 | 0 | 1.0 | 6.0 | 0.00 | 0.00 | 0.00 | 36 | 1008.8 |
| 20260503220016 | 58 | 0 | 2.0 | 10.0 | 0.00 | 0.00 | 0.00 | 36 | 1009.0 |
| 20260503213016 | 59 | 0 | 2.0 | 11.0 | 0.00 | 0.00 | 0.00 | 36 | 1008.9 |
| 20260503210016 | 59 | 0 | 1.0 | 6.0 | 0.00 | 0.00 | 0.00 | 36 | 1008.8 |
| 20260503203018 | 59 | 0 | 2.0 | 6.0 | 0.00 | 0.00 | 0.00 | 36 | 1008.9 |
| 20260503200038 | 59 | 0 | 2.0 | 7.0 | 0.00 | 0.00 | 0.00 | 33 | 1009.1 |
| 20260503193018 | 58 | 0 | 2.0 | 9.0 | 0.00 | 0.00 | 0.00 | 33 | 1009.4 |
| 20260503190017 | 58 | 0 | 2.0 | 9.0 | 0.00 | 0.00 | 0.00 | 35 | 1009.9 |
| 20260503183017 | 57 | 0 | 2.0 | 11.0 | 0.00 | 0.00 | 0.00 | 35 | 1010.1 |
| 20260503180017 | 56 | 0 | 1.0 | 10.0 | 0.00 | 0.00 | 0.00 | 37 | 1010.1 |
| 20260503173017 | 55 | 0 | 2.0 | 11.0 | 0.00 | 0.00 | 0.00 | 39 | 1010.5 |